FW1286 Weather Reports


Display with metric or nautical units.
time (UTC)temp
F
wind
direction
speed
MPH
gust
MPH
rain 1hr
in
rain 24hr
in
rain mn
in
humidity
%
barometer
mb
20260505192408 83 163 6.0 13.0 0.00 0.00 0.00 73 1005.6
20260505191421 83 96 6.0 13.0 0.00 0.00 0.00 73 1005.7
20260505190348 83 146 6.0 13.0 0.00 0.00 0.00 75 1005.9
20260505184227 81 112 7.0 19.0 0.00 0.00 0.00 77 1006.2
20260505183212 80 163 9.0 19.0 0.00 0.00 0.00 76 1006.3
20260505182215 80 158 8.0 17.0 0.00 0.00 0.00 78 1006.5
20260505181213 79 110 8.0 17.0 0.00 0.00 0.00 78 1006.7
20260505180222 78 122 7.0 18.0 0.00 0.00 0.00 80 1006.9
20260505175246 78 184 7.0 18.0 0.00 0.00 0.00 80 1006.9
20260505174221 78 138 7.0 15.0 0.00 0.00 0.00 81 1007.0
20260505173233 78 189 8.0 18.0 0.00 0.00 0.00 81 1007.2
20260505172213 76 189 9.0 18.0 0.00 0.00 0.00 83 1007.2
20260505171229 76 187 9.0 17.0 0.00 0.00 0.00 84 1007.3
20260505170157 75 155 8.0 18.0 0.00 0.00 0.00 85 1007.2
20260505165124 74 138 10.0 18.0 0.00 0.00 0.00 86 1007.3
20260505164104 74 187 8.0 18.0 0.00 0.00 0.00 87 1007.3
20260505163049 74 175 9.0 18.0 0.00 0.00 0.00 87 1007.4
20260505162050 74 182 7.0 17.0 0.00 0.00 0.00 87 1007.5
20260505161115 73 145 7.0 17.0 0.00 0.00 0.00 88 1007.4
20260505152946 73 119 5.0 11.0 0.00 0.00 0.00 89 1007.1
20260505151921 72 126 5.0 10.0 0.00 0.00 0.00 89 1007.3
20260505124616 71 180 5.0 12.0 0.00 0.00 0.00 90 1006.1
20260505123602 70 180 4.0 11.0 0.00 0.00 0.00 91 1006.1
20260505122604 70 119 5.0 11.0 0.00 0.00 0.00 90 1006.0
20260505121540 70 167 5.0 11.0 0.00 0.00 0.00 90 1005.6
20260505120557 70 147 4.0 10.0 0.00 0.00 0.00 91 1005.5
20260505115543 70 114 4.0 10.0 0.00 0.00 0.00 90 1005.4
20260505114512 70 148 4.0 10.0 0.00 0.00 0.00 90 1005.3
20260505113533 70 194 4.0 10.0 0.00 0.00 0.00 90 1005.3
20260505112524 70 175 4.0 10.0 0.00 0.00 0.00 90 1005.3
20260505111457 70 140 5.0 12.0 0.00 0.00 0.00 90 1005.4
20260505110446 70 129 5.0 12.0 0.00 0.00 0.00 90 1005.4
20260505101503 70 155 5.0 14.0 0.00 0.00 0.00 90 1005.5
20260505100509 70 163 5.0 14.0 0.00 0.00 0.00 90 1005.6
20260505095443 70 113 6.0 13.0 0.00 0.00 0.00 90 1005.6
20260505094434 70 164 5.0 11.0 0.00 0.00 0.00 90 1005.8
20260505093439 70 138 6.0 12.0 0.00 0.00 0.00 89 1005.8
20260505092430 70 202 5.0 17.0 0.00 0.00 0.00 89 1005.8
20260505091414 70 142 5.0 17.0 0.00 0.00 0.00 89 1005.8
20260505090343 70 163 6.0 17.0 0.00 0.00 0.00 89 1006.0
20260505085323 70 124 5.0 15.0 0.00 0.00 0.00 89 1006.1
20260505084327 70 152 6.0 15.0 0.00 0.00 0.00 89 1006.2
20260505083310 70 153 5.0 13.0 0.00 0.00 0.00 89 1006.2
20260505082319 70 157 5.0 13.0 0.00 0.00 0.00 89 1006.1
20260505081328 71 146 5.0 12.0 0.00 0.00 0.00 89 1006.2
20260505080323 71 126 5.0 14.0 0.00 0.00 0.00 89 1006.4
20260505075304 71 163 6.0 14.0 0.00 0.00 0.00 89 1006.4
20260505074239 71 157 7.0 12.0 0.00 0.00 0.00 89 1006.4
20260505073234 71 111 6.0 13.0 0.00 0.00 0.00 89 1006.7
20260505072234 71 115 6.0 18.0 0.00 0.00 0.00 89 1006.8
20260505071212 71 115 6.0 18.0 0.00 0.00 0.00 88 1006.8
20260505070212 71 121 7.0 13.0 0.00 0.00 0.00 88 1006.9
20260505065145 71 114 6.0 17.0 0.00 0.00 0.00 88 1007.0
20260505064144 71 85 8.0 17.0 0.00 0.00 0.00 88 1007.2
20260505063202 71 103 6.0 17.0 0.00 0.00 0.00 88 1007.2
20260505062216 71 153 6.0 13.0 0.00 0.00 0.00 88 1007.0
20260505061232 71 147 7.0 15.0 0.00 0.00 0.00 88 1007.3
20260505060201 71 121 6.0 15.0 0.00 0.00 0.00 88 1007.5
20260505055158 71 131 6.0 13.0 0.00 0.00 0.00 88 1007.4
20260505054215 71 167 5.0 14.0 0.00 0.00 0.00 88 1007.5
20260505053203 71 117 6.0 14.0 0.00 0.00 0.00 88 1007.6
20260505052145 71 154 6.0 15.0 0.00 0.00 0.00 88 1007.4
20260505051144 71 139 6.0 15.0 0.00 0.00 0.00 87 1007.5
20260505050156 71 126 6.0 13.0 0.00 0.00 0.00 87 1007.4
20260505034717 73 169 4.0 13.0 0.00 0.00 0.00 82 1007.5
20260505033706 73 114 5.0 14.0 0.00 0.00 0.00 82 1007.6
20260505032641 73 131 6.0 14.0 0.00 0.00 0.00 81 1007.5
20260505031628 74 102 5.0 13.0 0.00 0.00 0.00 80 1007.6
20260505025509 74 136 4.0 12.0 0.00 0.00 0.00 79 1007.5
20260505024512 74 147 5.0 9.0 0.00 0.00 0.00 78 1007.5
20260505022324 74 145 4.0 10.0 0.00 0.00 0.00 76 1007.5
20260505021301 74 132 3.0 8.0 0.00 0.00 0.00 75 1007.6
20260505020312 75 130 4.0 8.0 0.00 0.00 0.00 75 1007.4
20260505014212 75 107 4.0 9.0 0.00 0.00 0.00 74 1007.3
20260505013156 75 168 3.0 8.0 0.00 0.00 0.00 74 1007.4
20260505012138 76 146 5.0 9.0 0.00 0.00 0.00 73 1007.4
20260505011124 76 105 4.0 9.0 0.00 0.00 0.00 73 1007.5
20260505010144 76 173 4.0 9.0 0.00 0.00 0.00 72 1007.4
20260505005142 77 115 4.0 11.0 0.00 0.00 0.00 71 1007.5
20260505004201 78 178 6.0 11.0 0.00 0.00 0.00 70 1007.2
20260505000908 79 107 6.0 14.0 0.00 0.00 0.00 68 1007.4
20260504235932 79 138 7.0 14.0 0.00 0.00 0.00 67 1007.2
20260504234915 80 187 7.0 13.0 0.00 0.00 0.00 66 1007.4
20260504233902 81 113 6.0 14.0 0.00 0.00 0.00 66 1007.4
20260504230537 82 80 7.0 18.0 0.00 0.00 0.00 64 1007.5
20260504225558 82 147 8.0 15.0 0.00 0.00 0.00 64 1007.7
20260504224555 82 77 7.0 14.0 0.00 0.00 0.00 64 1007.7
20260504223612 82 108 8.0 18.0 0.00 0.00 0.00 64 1007.8
20260504222611 82 84 9.0 18.0 0.00 0.00 0.00 63 1008.0
20260504221611 83 113 8.0 14.0 0.00 0.00 0.00 62 1008.1
20260504220617 82 171 7.0 18.0 0.00 0.00 0.00 64 1008.2
20260504215546 82 103 7.0 18.0 0.00 0.00 0.00 63 1008.1
20260504211125 82 145 6.0 20.0 0.00 0.00 0.00 62 1008.9
20260504210054 82 101 7.0 18.0 0.00 0.00 0.00 63 1009.2
20260504205047 82 134 6.0 15.0 0.00 0.00 0.00 64 1009.4
20260504204101 81 127 6.0 15.0 0.00 0.00 0.00 64 1009.5
20260504201955 80 177 8.0 18.0 0.00 0.00 0.00 64 1009.9
20260504200954 80 132 7.0 15.0 0.00 0.00 0.00 66 1010.1
20260504195925 80 105 6.0 14.0 0.00 0.00 0.00 66 1010.2
20260504194946 79 134 7.0 17.0 0.00 0.00 0.00 67 1010.4
20260504194008 78 148 8.0 17.0 0.00 0.00 0.00 66 1010.8